Overview Statistics Trail Chart Weather Telemetry Raw packets
 

This is the latest recevied weather packets stored in our database for station/object W8KHW. If no packets are shown the sender has not sent any weather packets the latest 10 day(s).

<< 14 15 16 17 18 19 >>
Time Temp. Humidity Pressure Rain* Wind** Luminosity Snow
1777714879 0° C 99% 1017.6 hPa 0 mm - - -
1777714379 0° C 99% 1017.7 hPa 0 mm - - -
1777713879 0° C 99% 1017.7 hPa 0 mm - - -
1777713379 0.56° C 99% 1017.6 hPa 0 mm - - -
1777712878 0.56° C 99% 1017.6 hPa 0 mm - - -
1777712378 0° C 99% 1017.2 hPa 0 mm - - -
1777711878 0° C 99% 1017.3 hPa 0 mm - - -
1777711378 0° C 99% 1017.3 hPa 0 mm - - -
1777710878 0.56° C 99% 1017.2 hPa 0 mm - - -
1777710378 0.56° C 99% 1017.4 hPa 0 mm - - -
1777709878 0.56° C 99% 1017.2 hPa 0 mm - - -
1777709377 0.56° C 98% 1017.1 hPa 0 mm - - -
1777708891 0.56° C 99% 1017.4 hPa 0 mm - - -
1777708377 0.56° C 98% 1017.4 hPa 0 mm - - -
1777707877 1.11° C 98% 1017.4 hPa 0 mm - - -
1777707376 1.11° C 98% 1017.3 hPa 0 mm - - -
1777706876 1.11° C 98% 1017.4 hPa 0 mm - - -
1777706376 1.11° C 98% 1017.3 hPa 0 mm - - -
1777705876 1.11° C 98% 1017.6 hPa 0 mm - - -
1777705376 1.67° C 98% 1017.4 hPa 0 mm - - -
1777704876 1.67° C 98% 1017.4 hPa 0 mm - - -
1777704375 1.67° C 98% 1017.5 hPa 0 mm - - -
1777703875 1.11° C 98% 1017.6 hPa 0 mm - - -
1777703375 1.67° C 98% 1017.6 hPa 0 mm - - -
1777702875 1.67° C 98% 1017.8 hPa 0 mm - - -

* Rain latest hour (hover to see other rain measurements)
** Current wind speed in m/s (hover to see current wind gust speed)